sat.trackr.live / text

‹ back to catalog

LYRA-4

NORAD 64691 · 2025-140A

PAYLOAD ACTIVE UNKNOWN

§ Identity

Operator
Country
AUS
Launch date
2025-06-28
Launch site
RLLB
Launch vehicle
Mass (kg)
RCS (m²)

External: N2YO · Heavens-Above · Gunter

§ Orbital elements

Epoch: 2026-05-24T21:47:47.018112Z

Period
97.80 min
Inclination
96.0033°
Eccentricity
0.0010660
Mean motion
14.72431077 rev/d
Perigee alt
645.8 km
Apogee alt
660.8 km
Semi-major
7,031.5 km
B*
1.5648e-4
RAAN
271.3806°
Arg perigee
285.8980°
Mean anomaly
74.1057°
Rev number
4,863

§ Raw data

LYRA-41 64691U 25140A   26144.90818308  .00000963  00000+0  15648-3 0  99962 64691  96.0033 271.3806 0010660 285.8980  74.1057 14.72431077 48630

JSON: /api/v1/satellites/64691 · /tle

For live sub-satellite position, see the globe view (requires WebGL).

§ Visibility from observer

Set your observer location to see the next 7 days of passes ≥ 10°. The values pass through the URL so the page stays shareable.

No JS? Fill the form by hand. The geolocation button needs JavaScript.

§ Radio — SatNOGS DB

ModeDescriptionDownlinkUplink
FM Telemetry 400.503 MHz

1 transmitter · refreshed weekly from db.satnogs.org